Showing default

NIMBUS 4, 4362

Orbit data source: Space-Track

NIMBUS 4, 4362 is a payload satellite owned by GSFC (US) in SSO that was launched on Wed, 08 Apr 1970 UTC via a THORAD SLV-2G AGENA D launch vehicle from the Air Force Western Test Range (AFWTR). Payload-class satellites include a variety of spacecraft equipped with specific instruments for various scientific and technological missions. These include communications satellites like Starlink; space stations such as the ISS; scientific satellites like the Hubble; Earth observation satellites from companies like Planet Labs, Umbra, and HawkEye 360; GPS; miniature CubeSats for education and research; and military/defense satellites.

Loading next visibility...
Identifier
4362, 1970-025A
Orbit
SSO
Country
Flag of USUS
Related business
Manufacturer
GE/MSVD
Mission
Non-operational spacecraft
Bus & Motor
NIMBUS, Unknown motor
Mass
619 kg wet, 619 kg dry
Launch date (UTC)
1970-04-08 (56 years ago)
Launch vehicle
THORAD SLV-2G AGENA D
Launch site
Air Force Western Test Range (AFWTR)
Object type
Payload
Rocket body
Debris
Shape & HBR
Unknown
Radar Cross Section
Large (>1 m²)

Expand to show TLE details & history
Last TLE update: 5 hours ago

TLE from 5 hours ago
0 NIMBUS 4
1 04362U 70025A   26036.27137457 -.00000008  00000-0  62875-4 0  9993
2 04362  99.9610 318.6436 0007129 324.3734 201.3371 13.44747647739112
Epoch: 2026-02-05T06:30Z
TLE epoch observation values (Epoch: 2026-02-05T06:30:46.762Z)
Latitude
14.07064°
Longitude
-91.96729°
Altitude
1,098.651 km
Speed
7.302 km/s
True Right ascension
09h 24m 36s
True Declination
13° 59' 36"
Sunlit
Object was in full shadow at epoch
Visualization orbit readout
Latitude
Unknown
Longitude
Unknown
Altitude
Unknown
Speed
Unknown
Apparent Right ascension
Unknown
Apparent Declination
Unknown
Sunlit
N/A
Visualization observer readout
Local Sidereal Time
13:03:38
Azimuth
Unknown
Elevation
Unknown
Doppler factor
Unknown
Orbital elements
Apogee altitude
1,094.291 km
Perigee altitude
1,083.645 km
Semi-major axis
7,467.105 km
Eccentricity
0.00071
Inclination
99.961°
RAAN
318.6436°
Arg. of periapsis
324.3734°
True anomaly
201.3074°
Mean anomaly
201.3371°
Eccentric anomaly
201.32225°
Mean motion
3.36368 °/min
Orbital period
107.03 mins
BSTAR
0.000062875

Documentation

Showing up to 5 results
|